FloripaSat 1
1 44885U 19093G   25202.81199065  .00003585  00000-0  30169-3 0  9994
2 44885  97.8186 290.5093 0012200  66.1396 294.1104 14.98839009303079
RS-44
1 44909U 19096E   25202.45887152  .00000033  00000-0  87068-4 0  9991
2 44909  82.5200 199.4535 0217060 197.3673 161.9923 12.79742127260048
UPMSat 2
1 46276U 20061E   25202.46051301  .00075353  00000-0  52193-3 0  9991
2 46276  97.2416 278.4107 0001715 150.1313 210.0050 15.74267442272048
SALSAT
1 46495U 20068K   25202.46842785  .00005754  00000-0  24601-3 0  9996
2 46495  97.8622 182.4514 0011809  26.1294 334.0535 15.23213524264904
CubeSX-Sirius-HSE
1 47951U 21022V   25157.62701764  .07883385  25648-5  89537-3 0  9993
2 47951  97.4004  72.1904 0010275 223.9924 136.0557 16.36879307233400
CubeSX-HSE
1 47952U 21022W   25157.69972699  .06655353  25454-5  93288-3 0  9992
2 47952  97.3980  72.5414 0010307 219.3637 140.6911 16.34906352233436
GRBAlpha
1 47959U 21022AD  25160.45426279  .07940347  25506-5  90589-3 0  9995
2 47959  97.3899  75.6235 0011032 227.2558 132.7812 16.36806138232695
TUBIN
1 48900U 21059X   25202.80921969  .00043502  00000-0  46509-3 0  9994
2 48900  97.6759  15.5780 0003644  87.8787 272.2888 15.63775328226637
LEDSAT
1 49069U 21073D   25202.16831220  .00066841  00000-0  65063-3 0  9993
2 49069  97.3872 285.6005 0007734 268.6378  91.3996 15.66026117217937
CUTE
1 49263U 21088D   25202.77164516  .00036326  00000-0  67541-3 0  9997
2 49263  97.4496 280.2916 0008642  90.9255 269.2986 15.48770270210953
TeikyoSat 4
1 49396U 21102B   25202.56171587  .00001513  00000-0  10276-3 0  9997
2 49396  97.4082 239.4727 0012259 357.6512   2.4657 15.07784762202875
Z-Sat
1 49399U 21102E   25202.83601718  .00003152  00000-0  17324-3 0  9996
2 49399  97.3779 243.0974 0016723 321.7995  38.2051 15.14695796203379
KOSEN 1
1 49402U 21102H   25202.65680255  .00004995  00000-0  22953-3 0  9994
2 49402  97.3685 246.6608 0013975 293.7792  66.1977 15.20738844203682
HO-113
1 50466U 21131B   25202.84414603  .00000378  00000-0  13164-3 0  9996
2 50466  98.5106 291.9914 0004424  26.4406 333.7007 14.40853162187534
Foresail-1
1 52766U 22057AL  25176.64799660  .13857605  27391-5  25307-3 0  9992
2 52766  97.5832 331.2310 0012137 233.7199 258.4922 16.46795272172486
SNUGLITE 2
1 52899U 22065F   25202.40802111  .00000840  00000-0  17195-3 0  9994
2 52899  98.1738 343.9872 0007217 352.3207   7.7884 14.63289033162604
UmKA 1 (RS40S)
1 57172U 23091G   25202.86268890  .00004147  00000-0  22069-3 0  9993
2 57172  97.5560 258.0285 0014352 181.8368 178.2814 15.15722005113886
CubeBel-2 (EU11S)
1 57175U 23091K   25202.84438304  .00007444  00000-0  34883-3 0  9993
2 57175  97.5561 259.4209 0012011 187.4052 172.7007 15.19933541113979
VERONIKA
1 58261U 23174F   25202.52862786  .00283496  00000-0  11535-2 0  9993
2 58261  97.4058 291.6400 0007519 235.0898 124.9666 15.85438810 95298
ENSO
1 58470U 23185J   25202.83714570  .00048701  00000-0  60130-3 0  9992
2 58470  97.3715 279.4336 0005254 270.5604  89.5051 15.60003201 91615
EIRSAT-1
1 58472U 23185L   25202.53196626  .00150138  00000-0  90711-3 0  9993
2 58472  97.3647 281.8982 0005446 250.9701 109.0975 15.77175298 91750
SONATE-2
1 59112U 24043Q   25202.63521854  .00013299  00000-0  37050-3 0  9998
2 59112  97.5173 334.7022 0009782 329.3415  30.7256 15.36873141 76797
MO-122
1 60209U 24125G   25202.57392303  .00014009  00000-0  38297-3 0  9990
2 60209  97.2759  53.7493 0017580 352.1511   7.9455 15.37330846 58405
GRBBeta
1 60237U 24128C   25202.58862146  .00002902  00000-0  22393-3 0  9991
2 60237  61.9923 293.0530 0054736  66.4985 294.1845 15.02924714 56510
Curium One
1 60242U 24128H   25202.61939780  .00004749  00000-0  33154-3 0  9998
2 60242  61.9820 290.5994 0054740  62.7731 297.8924 15.05609619 56561
ROBUSTA-3A
1 60243U 24128J   25202.56883989  .00004738  00000-0  33543-3 0  9992
2 60243  61.9893 291.7471 0053733  60.4568 300.1866 15.05132175 56548
CatSat
1 60246U 24125J   25202.52890278  .00009375  00000-0  30712-3 0  9994
2 60246  97.2564  52.4310 0040288 305.9474  53.8032 15.31068501 56408
HYPERVIEW-1G (RS66S)
1 61772U 24199AP  25202.82044640  .00017130  00000-0  47497-3 0  9993
2 61772  97.3486  71.6202 0014341  48.3232 311.9237 15.36900722 83445
AO-123
1 61781U 24199AY  25202.86841399  .00005262  00000-0  18982-3 0  9993
2 61781  97.3502  70.0792 0017036  52.4285 307.8499 15.28814806 83340
ZIMSAT 2
1 61783U 24199BA  25202.84497816  .00031950  00000-0  71637-3 0  9993
2 61783  97.3457  72.6115 0013571  45.9458 314.2905 15.43256875 86662
HADES-R (SO-124)
1 62690U 25009CK  25202.45716018  .00029736  00000-0  97580-3 0  9991
2 62690  97.4081 283.1677 0001250 286.7024  73.4080 15.31551820 28558
HYDRA-T
1 62692U 25009CM  25202.17354963  .00030870  00000-0  10033-2 0  9997
2 62692  97.4084 282.9360 0001169 272.7502  87.3606 15.31854244 28514
JINJUSat 1B
1 63210U 25052A   25202.23902895  .00008694  00000-0  39071-3 0  9995
2 63210  97.4374  95.8454 0004930 152.2369 207.9131 15.21369111 19583
NUSHSAT 1
1 63211U 25052B   25202.62119205  .00009177  00000-0  40842-3 0  9999
2 63211  97.4362  96.2354 0004766 155.1437 205.0029 15.21684815 19643
TEVEL2-4
1 63213U 25052D   25202.84074630  .00009523  00000-0  42781-3 0  9996
2 63213  97.4279  96.2630 0003462 163.6629 196.4719 15.21359667 19674
TEVEL2-5
1 63214U 25052E   25202.24996834  .00009460  00000-0  42546-3 0  9999
2 63214  97.4282  95.6778 0003364 165.1961 194.9374 15.21322510 19589
TEVEL2-6
1 63215U 25052F   25202.64786722  .00009628  00000-0  43335-3 0  9990
2 63215  97.4280  96.0645 0003513 166.5114 193.6216 15.21290179 19640
TEVEL2-1
1 63217U 25052H   25202.66507302  .00009090  00000-0  41208-3 0  9999
2 63217  97.4255  96.0005 0003094 180.3711 179.7523 15.21061187 19646
TEVEL2-2
1 63218U 25052J   25202.27061879  .00008808  00000-0  39946-3 0  9993
2 63218  97.4255  95.6124 0003062 182.3718 177.7503 15.21056522 19584
TEVEL2-3
1 63219U 25052K   25202.27090987  .00008666  00000-0  39315-3 0  9998
2 63219  97.4254  95.6116 0003036 182.0722 178.0501 15.21048881 19589
TEVEL2-8
1 63237U 25052AD  25202.63303370  .00008557  00000-0  40213-3 0  9999
2 63237  97.4319  95.8464 0006719 216.5538 143.5239 15.19823015 19625
TEVEL2-9
1 63238U 25052AE  25202.24209550  .00008560  00000-0  40315-3 0  9999
2 63238  97.4325  95.4545 0006876 217.1888 142.8872 15.19746072 19563
TEVEL2-7
1 63239U 25052AF  25202.64002703  .00008626  00000-0  40654-3 0  9994
2 63239  97.4320  95.8385 0006813 217.1609 142.9155 15.19720981 19620
HYDRA-W
1 63490U 25052BL  25202.69512605  .00020533  00000-0  82310-3 0  9991
2 63490  97.4268  96.4399 0010091 213.1595 146.9012 15.24999538 19678
HADES-ICM (SO-125)
1 63492U 25052BN  25202.26383238  .00019543  00000-0  79671-3 0  9999
2 63492  97.4271  95.9564 0010322 219.8524 140.1956 15.24442970 19603
